Location: Unspecified
(49.2170°N, 0.0000°E)
Time: 19:03:02
(UTC+00:00)

Tiros 1 despin weight - Pass Details

Date: 23 January 2021
Orbit: 593 x 642 km, 48.2° (Epoch: 26 February)

Event Time Altitude Azimuth Distance (km) Brightness Sun altitude
Rises 20:00:17 0° 282° (WNW) 2,849 ? -32.0°
Reaches altitude 10° 20:02:47 10° 272° (W) 1,937 ? -32.4°
Enters shadow 20:04:50 22° 251° (WSW) 1,312 ? -32.8°
Maximum altitude 20:06:39 30° 211° (SSW) 1,071 - -33.0°
Drops below altitude 10° 20:10:30 10° 150° (SSE) 1,918 - -33.7°
Sets 20:12:58 0° 139° (SE) 2,816 - -34.1°
